Date,TemperatureHighF,TemperatureAvgF,TemperatureLowF,DewpointHighF,DewpointAvgF,DewpointLowF,HumidityHigh,HumidityAvg,HumidityLow,PressureMaxIn,PressureMinIn,WindSpeedMaxMPH,WindSpeedAvgMPH,GustSpeedMaxMPH,PrecipitationSumIn
2013-1-1,32.0,28.1,18.5,27.0,20.4,8.4,82,72,63,30.93,30.69,0,0,0,0.04
2013-1-2,32.0,17.0,5.7,16.1,3.7,-3.1,71,57,33,31.08,30.86,0,0,0,0.00
2013-1-3,12.7,7.3,6.1,1.1,-4.1,-5.8,64,59,51,31.02,30.98,0,0,0,0.00
2013-1-4,6.8,6.8,6.8,-4.4,-4.4,-4.4,59,59,59,31.02,31.02,0,0,0,0.00
2013-1-5,6.8,6.8,6.8,-4.4,-4.4,-4.4,59,59,59,31.02,31.02,0,0,0,0.00
2013-1-6,27.1,11.4,6.1,17.2,0.3,-6.0,69,60,51,31.02,30.53,4,0,4,0.14
2013-1-7,43.0,27.4,14.7,24.2,16.6,7.1,76,64,44,30.93,30.40,9,2,9,0.00
2013-1-8,50.7,35.5,23.0,28.6,22.4,14.4,73,60,39,30.74,30.32,8,2,8,0.00
2013-1-9,53.6,43.3,32.0,40.2,33.6,25.9,87,69,52,30.78,30.36,15,4,15,0.22
2013-1-10,49.6,37.7,28.4,45.0,32.1,23.6,86,80,60,30.89,30.13,12,1,12,0.18
2013-1-11,60.1,55.2,49.8,51.8,47.7,44.8,87,76,62,30.24,29.96,14,4,14,0.89
2013-1-12,66.6,58.4,54.7,53.5,49.5,44.6,82,72,59,30.17,29.99,13,5,13,0.00
2013-1-13,64.0,36.9,24.8,60.4,32.5,17.7,89,84,73,30.63,29.72,14,2,14,1.39
2013-1-14,25.9,22.6,17.8,17.9,13.8,9.4,75,69,59,31.02,30.42,0,0,0,0.00
2013-1-15,33.4,26.2,19.2,20.8,16.5,11.1,75,67,55,30.91,30.23,5,1,5,0.00
2013-1-16,34.3,30.2,26.1,21.8,19.6,16.0,76,65,48,30.57,30.17,9,2,9,0.00
2013-1-17,43.7,33.3,25.2,31.0,22.0,13.6,75,63,45,30.82,30.38,9,2,9,0.00
2013-1-18,43.7,31.8,18.7,24.1,16.1,9.9,75,54,28,30.99,30.40,17,3,17,0.00
2013-1-19,55.8,46.0,38.3,34.8,27.7,21.3,66,49,36,30.63,29.82,21,8,21,0.00
2013-1-20,45.7,31.8,23.7,34.6,12.0,1.7,65,44,24,30.48,30.05,21,5,21,0.00
2013-1-21,23.7,18.2,11.1,12.8,0.0,-10.7,63,45,27,30.67,30.24,19,7,19,0.00
2013-1-22,18.1,12.1,5.2,-5.6,-10.4,-13.5,48,35,24,30.83,30.55,13,5,13,0.00
2013-1-23,32.7,20.8,9.7,11.7,2.1,-8.7,53,44,31,30.83,30.14,12,3,12,0.00
2013-1-24,28.8,21.2,12.6,8.1,-1.0,-8.4,59,39,21,31.07,30.52,11,3,11,0.00
2013-1-25,29.7,25.2,19.9,16.9,7.6,-6.5,64,48,27,30.82,30.17,11,3,11,0.00
2013-1-26,37.9,25.3,16.2,16.7,10.9,5.6,68,55,34,30.74,30.19,8,2,8,0.01
2013-1-27,41.7,30.2,17.8,39.0,20.0,7.4,90,66,46,30.86,30.23,8,2,8,0.20
2013-1-28,57.9,51.3,41.5,55.1,47.6,38.8,93,87,73,30.38,30.12,19,5,19,0.31
2013-1-29,69.1,60.9,55.9,56.0,53.3,50.2,88,76,63,30.17,29.55,19,7,19,0.00
2013-1-30,69.6,46.5,27.3,56.3,40.5,17.0,90,80,58,30.09,29.52,24,8,24,0.85
2013-1-31,31.3,23.9,9.7,20.0,11.9,-4.7,78,60,49,30.42,29.93,24,10,24,0.00
2013-2-1,20.3,11.6,5.0,2.4,-3.5,-9.2,60,50,38,30.90,30.28,16,5,18,0.00
2013-2-2,31.5,24.4,14.9,21.7,14.2,2.1,76,65,52,30.70,30.07,12,5,12,0.00
2013-2-3,27.0,20.4,13.3,18.5,9.6,1.6,75,63,52,30.62,30.16,12,3,12,0.00
2013-2-4,41.7,29.6,17.2,29.4,18.7,5.7,82,64,44,30.47,29.85,14,3,14,0.07
2013-2-5,39.2,31.8,21.7,30.7,23.5,16.0,79,71,59,30.46,30.09,13,2,13,0.00
2013-2-6,41.0,32.6,27.5,27.0,22.8,18.7,76,67,56,30.75,30.31,8,2,8,0.00
2013-2-7,66.2,44.1,28.0,45.1,31.1,19.9,89,64,29,30.63,30.00,10,2,10,0.18
2013-2-8,44.1,34.5,32.0,40.4,27.3,21.4,88,75,64,30.79,30.12,14,4,14,0.00
2013-2-9,48.4,34.6,24.6,24.1,20.8,16.8,75,58,34,30.85,30.30,8,2,8,0.00
2013-2-10,53.4,44.5,33.6,47.2,34.7,18.8,83,69,47,30.52,29.81,16,4,16,0.24
2013-2-11,53.6,43.0,35.4,47.1,29.8,23.4,79,60,48,30.38,29.85,25,9,25,0.00
2013-2-12,47.1,36.3,25.7,28.4,23.6,17.8,77,61,43,30.64,30.17,11,3,11,0.00
2013-2-13,49.5,36.0,30.2,27.3,24.1,20.6,76,63,34,30.36,29.96,11,2,11,0.00
2013-2-14,54.0,41.3,32.7,36.6,30.9,22.8,81,67,46,30.36,30.03,17,5,17,0.00
2013-2-15,41.9,32.7,23.4,27.3,20.6,10.3,75,61,44,30.60,30.29,14,4,14,0.00
2013-2-16,32.0,24.5,20.5,14.1,9.9,2.5,68,54,34,30.64,30.17,15,4,15,0.00
2013-2-17,40.8,25.3,11.7,12.2,6.4,-1.4,66,47,21,30.68,30.21,9,2,9,0.00
2013-2-18,60.3,43.8,28.4,41.9,27.6,8.6,83,54,34,30.52,29.89,22,6,22,0.40
2013-2-19,47.5,28.7,23.2,42.8,16.2,6.9,85,60,47,30.48,29.91,22,11,22,0.06
2013-2-20,31.3,22.4,14.2,10.6,5.5,-0.6,65,48,32,30.82,30.46,16,4,16,0.00
2013-2-21,36.0,25.3,14.9,25.6,15.3,6.5,82,66,46,30.84,30.28,10,2,10,0.02
2013-2-22,38.1,34.3,30.4,31.5,28.1,22.0,86,78,66,30.46,30.06,14,4,14,0.35
2013-2-23,32.0,28.7,26.4,22.7,19.0,17.3,70,67,64,30.49,30.20,14,4,14,0.00
2013-2-24,26.4,24.8,19.4,19.9,18.2,13.4,78,76,70,30.56,30.26,4,1,4,0.00
2013-2-25,39.7,28.5,26.4,26.0,20.8,19.9,76,73,55,30.30,29.88,8,2,8,0.00
2013-2-26,45.0,39.3,33.8,41.6,33.3,22.6,91,80,51,30.04,29.61,11,3,11,1.10
2013-2-27,40.3,34.6,32.4,36.7,30.0,25.3,90,83,75,30.14,29.77,18,6,18,0.06
2013-2-28,38.1,34.2,32.0,32.1,28.8,25.3,85,80,74,30.37,29.96,9,3,9,0.02
2013-3-1,38.5,32.9,31.5,30.6,26.8,25.2,84,78,65,30.53,29.98,8,1,8,0.04
2013-3-2,35.2,30.0,27.5,25.7,20.8,14.4,79,69,48,30.54,30.06,8,2,8,0.00
2013-3-3,43.5,29.6,20.8,19.9,15.0,8.8,76,56,32,30.59,30.12,10,3,10,0.01
2013-3-4,42.8,31.7,18.9,24.3,17.8,11.1,76,57,39,30.60,29.91,9,2,9,0.00
2013-3-5,38.8,34.9,28.4,34.6,27.9,24.3,88,76,56,30.17,29.77,16,4,16,0.22
2013-3-6,33.4,30.2,28.4,28.0,25.8,24.3,88,84,77,30.71,30.18,14,5,14,0.05
2013-3-7,42.1,32.7,28.0,31.5,25.0,22.6,85,74,56,30.86,30.51,6,2,6,0.05
2013-3-8,53.6,35.7,23.0,30.0,23.2,17.5,84,63,32,30.94,30.52,6,1,6,0.00
2013-3-9,60.8,45.8,28.2,31.5,27.1,19.0,75,50,29,30.74,30.02,9,2,9,0.00
2013-3-10,71.1,60.0,52.0,46.2,36.5,29.9,77,43,24,30.22,29.75,17,4,17,0.04
2013-3-11,58.8,45.4,34.2,50.0,40.1,26.6,94,82,62,30.10,29.83,19,7,19,0.18
2013-3-12,49.1,37.3,32.9,30.4,26.1,21.6,84,65,44,30.54,30.10,18,7,18,0.02
2013-3-13,34.0,29.5,25.2,26.9,19.2,13.7,79,65,58,30.75,30.31,17,6,17,0.00
2013-3-14,44.2,31.1,21.4,28.5,20.5,14.4,85,66,39,30.85,30.40,10,3,10,0.00
2013-3-15,56.8,41.2,25.2,40.4,32.2,20.8,87,72,50,30.49,29.90,7,1,7,0.09
2013-3-16,56.7,47.3,36.5,48.1,38.4,27.0,84,71,59,30.12,29.83,11,4,11,0.01
2013-3-17,40.1,35.4,32.4,29.3,26.4,24.2,82,69,62,30.53,30.00,10,3,10,0.15
2013-3-18,43.7,38.5,34.0,41.1,34.8,29.3,93,87,81,30.20,29.88,15,4,15,0.79
2013-3-19,44.8,34.7,26.8,32.2,18.1,13.7,82,51,31,30.48,30.02,22,9,22,0.00
2013-3-20,33.8,29.6,25.2,18.2,12.0,1.0,62,48,31,30.58,30.14,19,7,19,0.00
2013-3-21,41.7,27.3,18.9,10.7,6.9,1.5,66,43,23,30.53,30.14,10,3,11,0.00
2013-3-22,53.1,33.9,16.7,22.4,12.6,7.0,74,45,22,30.55,29.91,9,2,9,0.00
2013-3-23,59.4,43.7,34.9,24.6,21.5,15.8,59,43,22,30.38,29.87,9,2,9,0.00
2013-3-24,45.3,35.9,29.1,30.8,27.1,23.5,89,71,53,30.09,29.50,17,3,17,0.00
2013-3-25,36.3,31.6,28.4,29.3,27.2,23.7,88,84,72,30.28,29.72,7,0,7,0.08
2013-3-26,45.5,34.5,29.3,29.0,24.6,19.4,85,68,48,30.65,30.26,11,3,11,0.17
2013-3-27,48.0,36.0,27.3,28.3,23.2,19.0,80,61,40,30.78,30.46,11,3,11,0.00
2013-3-28,59.2,40.0,25.2,31.5,23.8,16.4,78,54,29,30.85,30.40,8,2,8,0.00
2013-3-29,60.4,43.4,28.9,34.5,28.5,22.9,82,59,27,30.80,30.30,7,1,7,0.00
2013-3-30,66.4,48.3,30.0,40.2,32.3,25.4,86,58,25,30.52,29.97,10,2,10,0.00
2013-3-31,64.8,52.3,46.0,45.5,42.2,38.0,93,71,42,30.17,29.72,14,5,14,0.00
2013-4-1,53.6,43.2,31.1,39.0,24.2,12.9,72,49,25,30.36,29.94,14,5,14,0.00
2013-4-2,53.8,37.5,24.6,24.0,14.7,5.0,65,42,21,30.55,30.24,11,2,11,0.00
2013-4-3,56.5,39.0,23.2,22.8,15.1,10.2,72,41,20,30.81,30.30,9,2,9,0.00
2013-4-4,66.6,45.3,30.2,26.1,19.7,15.2,63,40,16,30.60,30.02,6,1,6,0.00
2013-4-5,68.0,49.4,33.8,37.6,27.2,16.5,66,44,22,30.46,30.04,11,2,11,0.00
2013-4-6,75.4,56.4,37.8,47.5,32.5,25.9,66,43,22,30.39,29.75,13,4,13,0.18
2013-4-7,79.3,67.0,58.8,56.2,44.5,36.0,91,46,26,30.01,29.70,17,5,17,0.01
2013-4-8,76.1,63.7,55.2,58.5,54.9,51.7,99,75,52,29.91,29.79,15,4,15,0.14
2013-4-9,81.9,69.9,56.8,61.1,57.0,53.0,89,66,41,30.08,29.71,18,4,18,0.00
2013-4-10,82.8,75.0,65.3,66.4,62.8,55.8,76,66,52,29.81,29.34,16,6,16,0.01
2013-4-11,67.8,60.2,46.6,61.4,58.0,46.3,99,93,75,29.66,29.51,14,4,14,0.99
2013-4-12,49.1,42.9,36.3,46.3,34.6,29.5,99,73,56,30.25,29.66,16,7,16,0.01
2013-4-13,57.7,47.5,39.4,38.6,35.1,32.2,84,63,44,30.13,29.99,20,7,20,0.00
2013-4-14,78.8,58.9,37.6,47.0,40.8,34.9,95,57,26,30.13,29.67,14,3,14,0.01
2013-4-15,77.0,64.2,57.6,58.8,52.0,44.2,74,65,50,30.05,29.75,11,3,11,0.26
2013-4-16,70.0,59.4,51.4,62.7,54.8,51.1,99,85,71,30.20,29.85,11,3,11,0.32
2013-4-17,82.2,61.4,50.7,68.5,57.9,50.5,99,90,62,30.34,29.81,14,2,14,0.15
2013-4-18,80.2,70.2,51.8,66.5,62.4,51.3,99,78,52,29.81,29.50,20,6,20,1.38
2013-4-19,51.8,40.9,37.8,51.3,35.2,29.8,99,80,65,30.30,29.55,22,8,22,0.52
2013-4-20,56.3,41.9,32.7,34.6,30.2,24.5,93,66,32,30.49,30.05,11,3,11,0.00
2013-4-21,63.5,45.7,30.4,33.9,29.1,24.4,80,56,26,30.65,30.36,9,2,9,0.00
2013-4-22,77.4,66.1,40.1,46.6,39.2,30.8,73,41,21,30.38,29.93,6,2,6,0.00
2013-4-23,68.0,58.1,50.2,58.5,50.6,42.2,99,77,53,30.16,29.83,10,2,10,0.38
2013-4-24,58.1,44.6,36.9,57.8,40.6,31.1,99,87,59,30.34,29.87,11,4,11,0.70
2013-4-25,59.9,46.7,35.8,41.2,34.5,29.9,85,65,33,30.45,30.30,21,4,21,0.00
2013-4-26,71.1,49.4,32.7,42.5,35.4,31.2,98,65,31,30.67,30.43,8,2,8,0.00
2013-4-27,63.1,53.2,42.6,54.2,46.3,39.2,97,79,46,30.61,30.06,7,1,7,0.06
2013-4-28,62.6,57.0,54.9,59.6,55.7,54.0,99,96,83,30.09,29.85,12,2,12,0.28
2013-4-29,76.1,60.7,54.3,57.3,54.0,51.1,99,81,44,30.11,29.78,7,2,7,0.01
2013-4-30,88.3,68.5,50.9,61.6,54.9,48.8,96,66,35,30.07,29.67,11,2,11,0.00
2013-5-1,90.5,71.7,53.1,61.9,55.2,50.8,94,61,29,30.13,29.77,6,1,6,0.00
2013-5-2,86.4,70.9,57.9,60.9,56.8,51.7,94,64,35,30.13,29.84,8,2,8,0.00
2013-5-3,79.0,67.7,60.1,64.5,58.5,54.8,95,74,46,29.99,29.69,9,2,9,0.14
2013-5-4,66.9,58.2,53.6,58.9,54.1,48.3,99,87,57,29.96,29.73,5,1,5,0.20
2013-5-5,57.4,53.9,52.2,56.6,53.2,51.6,99,97,94,30.04,29.85,8,1,8,0.66
2013-5-6,72.0,59.8,52.2,58.8,55.0,51.6,99,85,58,30.08,29.88,9,2,9,0.05
2013-5-7,79.3,63.8,55.8,60.3,56.3,53.2,97,80,44,30.12,29.82,8,1,8,0.00
2013-5-8,85.5,66.9,54.7,66.3,57.6,52.4,99,76,37,30.19,29.93,11,1,11,0.09
2013-5-9,84.2,66.2,55.0,65.1,58.6,52.3,99,81,36,30.15,29.77,9,1,9,0.70
2013-5-10,61.7,60.7,60.3,61.1,60.4,59.8,99,99,98,29.89,29.81,2,1,2,0.00
2013-5-11,66.7,53.6,46.8,57.2,45.4,33.0,98,76,39,30.25,30.05,17,4,17,0.01
2013-5-12,63.0,50.3,39.0,36.7,32.8,28.1,83,53,32,30.28,30.06,13,4,13,0.00
2013-5-13,70.3,55.0,40.5,42.4,34.3,27.4,79,50,22,30.45,30.08,12,3,12,0.00
2013-5-14,87.1,68.3,50.0,61.7,49.6,35.8,74,52,40,30.18,29.57,13,3,13,0.00
2013-5-15,91.0,78.0,68.2,63.7,59.9,56.4,72,55,36,29.86,29.59,15,5,15,0.00
2013-5-16,79.5,70.6,63.7,66.4,62.6,59.4,95,76,62,29.79,29.59,11,3,11,0.14
2013-5-17,85.5,71.4,58.3,68.0,63.0,58.0,99,78,49,29.91,29.70,8,2,8,0.00
2013-5-18,83.8,70.8,63.0,67.3,64.4,60.8,96,82,54,29.93,29.69,6,1,6,0.00
2013-5-19,93.9,75.4,59.9,72.2,65.5,59.6,99,75,43,29.92,29.67,5,1,5,0.00
2013-5-20,88.7,78.2,69.6,71.4,68.9,65.4,96,75,48,29.81,29.59,12,3,12,0.00
2013-5-21,85.6,73.6,63.0,69.6,64.8,62.1,99,76,49,29.85,29.41,30,3,30,0.45
2013-5-22,79.5,69.5,62.1,66.2,62.7,57.6,96,80,58,29.59,29.42,11,3,11,0.14
2013-5-23,68.7,59.7,49.5,60.4,55.6,44.0,99,87,68,30.07,29.52,11,3,11,0.05
2013-5-24,72.9,55.1,42.6,49.1,41.6,32.2,97,65,24,30.51,30.07,7,2,7,0.00
2013-5-25,70.3,54.0,43.0,53.4,46.4,39.9,98,78,39,30.52,30.20,6,1,6,0.08
2013-5-26,72.7,59.3,50.0,59.1,53.7,48.6,99,84,52,30.45,30.07,8,1,8,0.27
2013-5-27,85.1,69.0,57.4,72.7,61.9,55.7,98,80,51,30.14,29.65,11,2,11,0.22
2013-5-28,84.9,74.1,62.6,68.8,65.2,61.8,99,75,56,29.79,29.55,14,3,14,0.00
2013-5-29,90.3,78.8,70.7,66.0,61.6,57.1,74,57,36,29.82,29.60,11,3,11,0.00
2013-5-30,89.6,78.5,71.4,71.9,66.6,62.9,77,67,50,29.81,29.47,13,3,13,0.00
2013-5-31,80.1,72.4,63.5,72.4,67.9,62.7,99,86,72,29.79,29.58,13,3,13,1.04
2013-6-1,77.9,69.8,63.9,70.7,65.9,63.0,99,88,71,29.77,29.53,13,3,13,0.76
2013-6-2,74.8,66.3,61.3,64.9,61.1,57.4,97,84,64,29.85,29.61,10,3,10,0.00
2013-6-3,64.4,63.6,52.7,59.1,58.4,50.0,91,83,81,29.96,29.83,4,4,4,0.00
2013-6-4,81.5,63.8,48.2,57.2,52.7,47.9,99,72,39,30.21,29.78,8,1,8,0.00
2013-6-5,88.2,69.2,53.8,63.9,57.3,50.6,93,69,39,29.99,29.65,5,1,5,0.00
2013-6-6,87.4,71.1,61.9,65.5,61.8,59.1,98,75,43,29.73,29.43,7,1,7,0.06
2013-6-7,79.3,67.5,60.3,63.8,60.7,55.9,98,80,47,29.77,29.67,6,1,6,0.00
2013-6-8,85.1,67.9,57.4,65.3,60.0,57.1,99,79,44,29.93,29.57,4,1,4,0.00
2013-6-9,86.0,72.0,61.9,68.2,63.4,58.9,99,78,45,29.86,29.65,6,1,6,0.25
2013-6-10,79.2,69.8,64.9,67.6,65.0,61.6,99,86,61,29.71,29.54,10,2,10,0.27
2013-6-11,89.6,75.7,63.5,69.9,65.5,61.5,94,73,45,29.82,29.54,8,2,8,0.00
2013-6-12,94.5,82.9,72.5,76.0,72.3,68.4,96,72,47,29.74,29.46,11,3,11,0.00
2013-6-13,85.1,76.9,64.9,72.0,63.0,51.4,82,63,36,29.82,29.45,18,4,18,0.00
2013-6-14,89.6,71.3,55.4,65.4,58.8,53.3,95,68,36,30.06,29.77,7,1,7,0.00
2013-6-15,87.8,73.3,59.4,68.4,62.7,58.8,99,73,42,29.98,29.71,11,1,11,0.04
2013-6-16,81.3,71.5,67.3,71.3,66.5,60.9,98,85,61,29.86,29.65,21,2,21,0.12
2013-6-17,95.4,76.0,65.1,74.3,68.9,62.6,99,82,44,29.81,29.63,8,1,8,0.01
2013-6-18,90.7,74.6,65.1,69.9,65.6,60.9,99,77,44,29.83,29.62,14,2,14,0.50
2013-6-19,89.6,72.6,60.6,67.5,64.0,60.2,99,78,43,29.99,29.79,6,1,6,0.04
2013-6-20,95.2,75.3,61.5,69.2,64.9,60.3,99,74,35,30.09,29.89,5,1,5,0.00
2013-6-21,95.5,77.7,61.5,73.1,66.9,61.0,99,73,42,30.08,29.76,7,1,7,0.08
2013-6-22,94.8,74.7,68.7,74.7,69.8,62.5,99,86,48,33.07,29.83,14,1,14,0.12
2013-6-23,88.7,76.1,65.1,77.5,69.0,64.9,99,81,54,30.01,29.77,13,2,13,0.01
2013-6-24,88.9,76.7,68.9,73.9,69.9,67.2,96,81,54,29.91,29.71,6,1,6,0.00
2013-6-25,93.9,78.2,66.9,78.7,72.0,65.2,99,83,49,29.84,29.62,23,2,23,0.43
2013-6-26,83.3,71.4,67.5,74.1,69.6,67.0,99,94,70,29.70,29.47,8,1,9,0.61
2013-6-27,93.0,76.1,65.8,78.7,70.7,65.6,99,85,54,29.61,29.47,8,1,10,0.06
2013-6-28,88.7,78.8,64.9,69.5,65.4,59.7,97,66,42,29.58,29.33,9,3,13,0.19
2013-6-29,83.1,69.3,63.5,71.6,65.4,62.6,99,88,59,29.58,29.41,5,1,7,0.30
2013-6-30,82.8,68.2,62.2,73.2,65.2,61.7,99,91,54,29.67,29.50,6,1,8,0.70
2013-7-1,75.6,68.2,65.1,68.1,64.1,61.9,96,87,74,29.74,29.63,7,2,7,0.07
2013-7-2,84.0,68.9,63.7,72.0,65.2,61.8,99,89,59,29.79,29.67,6,2,7,0.20
2013-7-3,85.5,70.5,60.8,67.8,64.2,60.2,99,83,49,29.93,29.74,8,1,8,0.01
2013-7-4,78.8,69.8,60.1,70.2,66.0,59.8,99,88,72,30.03,29.76,4,1,4,0.00
2013-7-5,87.3,73.8,63.3,70.9,67.7,62.5,99,83,53,30.03,29.88,5,1,5,0.00
2013-7-6,77.4,71.5,66.9,70.8,68.0,65.5,96,89,76,30.06,29.87,4,0,4,0.01
2013-7-7,90.3,75.4,64.2,72.2,67.6,63.4,99,79,48,30.00,29.77,6,1,6,0.01
2013-7-8,91.8,78.8,70.3,76.3,70.9,67.3,92,78,58,29.93,29.71,7,2,7,0.00
2013-7-9,93.4,81.8,75.0,78.9,74.1,71.0,92,78,58,29.85,29.67,7,2,7,0.01
2013-7-10,89.8,77.7,67.6,77.0,72.3,66.5,97,84,61,29.80,29.53,14,2,14,0.31
2013-7-11,85.5,73.0,62.2,71.9,60.8,56.2,95,68,42,29.85,29.72,13,2,13,0.00
2013-7-12,88.7,71.4,57.4,64.3,59.5,56.3,98,70,36,29.97,29.75,8,1,8,0.00
2013-7-13,88.9,72.6,59.4,68.1,63.0,58.0,98,75,44,29.99,29.75,10,1,10,0.00
2013-7-14,96.1,78.5,64.6,73.9,69.3,64.0,99,77,44,30.02,29.79,6,1,6,0.00
2013-7-15,96.1,80.7,70.5,74.8,72.0,69.7,99,77,46,30.08,29.86,5,1,5,0.01
2013-7-16,100.8,81.9,69.1,79.8,72.4,68.6,99,77,41,30.12,29.91,4,0,4,0.00
2013-7-17,101.1,83.5,70.5,78.1,73.4,70.0,99,75,42,30.13,29.87,5,1,5,0.00
2013-7-18,101.3,84.3,70.9,81.9,73.7,70.3,99,75,40,30.05,29.68,4,0,4,0.00
2013-7-19,95.4,83.6,74.8,77.1,74.1,71.3,96,75,50,29.72,29.55,8,2,8,0.00
2013-7-20,91.8,75.1,66.4,76.5,70.4,65.8,99,86,57,29.73,29.55,12,2,12,2.20
2013-7-21,92.3,75.2,63.7,77.5,69.6,62.8,99,85,49,29.73,29.53,9,0,9,0.18
2013-7-22,88.5,75.1,68.5,75.4,70.8,67.7,99,88,58,29.65,29.50,6,1,9,0.32
2013-7-23,92.5,77.9,70.0,77.9,71.4,61.5,97,82,55,29.64,29.45,11,2,11,0.20
2013-7-24,82.8,69.0,57.0,61.9,57.7,54.8,94,69,43,29.87,29.57,7,2,8,0.00
2013-7-25,85.3,67.7,54.3,63.2,57.8,53.3,99,75,42,30.00,29.69,8,1,8,0.00
2013-7-26,85.3,69.6,55.2,66.2,60.9,54.4,99,77,46,29.92,29.71,4,0,5,0.01
2013-7-27,81.5,69.6,58.5,66.7,60.8,50.6,99,76,48,29.84,29.63,8,3,8,0.22
2013-7-28,77.5,63.9,52.0,58.7,53.2,49.7,94,71,44,30.11,29.81,8,2,8,0.00
2013-7-29,86.2,68.0,54.1,65.4,57.8,52.9,99,74,39,30.15,29.88,8,1,8,0.00
2013-7-30,81.1,68.5,59.9,69.4,63.8,58.5,98,86,60,30.03,29.79,4,0,4,0.04
2013-7-31,82.0,71.5,65.7,71.8,67.8,64.4,96,88,68,29.93,29.69,4,0,4,0.01
2013-8-1,88.5,74.0,63.9,72.3,64.3,58.0,99,75,43,29.86,29.70,8,1,8,0.00
2013-8-2,82.6,70.5,58.5,68.9,63.6,57.9,98,80,55,29.85,29.64,7,1,7,0.00
2013-8-3,88.3,76.5,66.2,73.0,67.2,59.7,94,74,51,29.94,29.68,8,1,8,0.00
2013-8-4,86.2,69.1,55.6,63.2,57.7,53.4,96,71,37,30.12,29.79,7,1,7,0.00
2013-8-5,88.0,69.8,54.5,67.7,60.1,53.7,99,75,41,29.99,29.69,4,1,4,0.00
2013-8-6,85.3,74.4,66.6,74.5,68.8,62.4,95,83,67,29.82,29.70,5,0,5,0.00
2013-8-7,86.9,76.3,68.2,75.6,72.3,67.6,99,88,67,29.79,29.61,4,1,4,0.00
2013-8-8,91.4,78.3,70.2,76.3,72.6,69.0,98,84,57,29.89,29.61,7,1,7,0.08
2013-8-9,91.9,76.9,70.5,73.8,70.5,66.3,98,83,49,29.82,29.63,4,1,4,0.12
2013-8-10,94.1,77.6,68.0,71.3,67.9,63.2,97,76,42,29.83,29.51,4,1,4,0.00
2013-8-11,90.9,75.7,65.8,74.6,66.7,62.8,99,77,41,29.90,29.59,6,1,6,0.00
2013-8-12,87.3,73.6,61.3,72.4,67.2,60.8,99,82,52,29.86,29.64,5,0,5,0.00
2013-8-13,80.8,70.6,55.4,68.6,62.2,48.7,97,76,54,29.92,29.60,8,2,8,0.00
2013-8-14,78.1,61.8,49.3,54.3,50.3,47.3,98,70,35,30.20,29.88,10,1,10,0.00
2013-8-15,75.9,61.3,47.8,57.9,53.2,47.6,99,78,46,30.14,29.86,8,1,8,0.00
2013-8-16,82.4,64.0,52.9,60.1,55.8,52.3,99,78,41,30.10,29.87,7,1,8,0.00
2013-8-17,85.5,67.9,55.0,65.5,58.9,54.2,99,77,40,30.13,29.82,8,1,8,0.00
2013-8-18,89.6,70.3,57.7,67.1,61.3,57.5,99,77,37,30.06,29.79,6,1,6,0.00
2013-8-19,91.4,72.0,57.7,75.3,62.9,57.5,99,77,41,30.02,29.82,5,0,5,0.00
2013-8-20,95.5,74.7,61.0,74.9,64.9,60.4,99,76,38,29.96,29.74,7,1,7,0.00
2013-8-21,96.3,75.8,63.3,76.9,67.8,62.5,99,79,41,29.99,29.78,6,1,6,0.00
2013-8-22,91.2,75.8,66.2,74.7,69.4,64.6,97,82,51,29.93,29.73,10,1,10,0.06
2013-8-23,92.8,75.6,65.8,71.6,66.7,63.2,99,78,42,29.96,29.75,8,1,8,0.05
2013-8-24,95.4,73.1,59.7,71.6,62.4,58.0,99,74,34,30.07,29.88,5,1,5,0.00
2013-8-25,96.6,73.0,56.8,73.8,61.7,56.6,99,73,32,30.20,29.99,4,0,4,0.00
2013-8-26,95.4,77.5,64.0,74.4,69.8,61.8,97,80,45,30.05,29.77,7,1,7,0.00
2013-8-27,95.7,80.6,72.7,76.2,73.1,70.9,95,79,49,29.83,29.63,7,2,7,0.00
2013-8-28,98.1,82.7,73.2,75.2,71.8,68.0,96,73,40,29.79,29.57,10,3,10,0.00
2013-8-29,94.8,79.7,70.5,75.3,70.7,65.3,98,77,43,29.84,29.68,5,1,5,0.00
2013-8-30,99.7,79.4,64.6,77.7,70.4,64.3,99,77,42,29.80,29.57,6,1,6,0.00
2013-8-31,99.5,81.2,69.1,77.5,72.2,67.4,99,77,46,29.75,29.50,14,2,14,1.09
2013-9-1,90.0,74.7,65.8,74.6,70.2,65.6,99,87,56,29.66,29.49,6,1,6,0.09
2013-9-2,90.3,74.8,65.8,73.1,68.3,63.3,99,83,46,29.75,29.54,8,1,8,0.00
2013-9-3,82.2,67.1,57.4,63.3,57.2,53.1,95,73,41,29.90,29.68,9,2,9,0.00
2013-9-4,89.1,67.0,53.1,66.9,58.6,52.5,99,78,39,30.04,29.73,4,1,4,0.00
2013-9-5,92.7,70.6,58.8,69.8,63.3,58.6,99,81,39,30.08,29.76,5,0,5,0.00
2013-9-6,91.8,71.4,58.3,70.0,63.3,56.5,99,79,43,30.04,29.73,5,1,5,0.00
2013-9-7,90.9,73.5,60.4,70.7,65.9,59.7,99,80,44,29.86,29.63,7,1,7,0.00
2013-9-8,85.6,75.2,67.3,75.3,70.3,67.0,99,86,65,29.90,29.68,4,0,4,0.01
2013-9-9,95.2,78.4,66.2,75.1,70.8,65.9,99,80,47,29.85,29.55,6,1,6,0.00
2013-9-10,98.8,80.4,70.5,76.0,73.0,69.4,98,80,45,29.92,29.75,7,1,7,1.03
2013-9-11,98.4,79.6,70.2,75.2,71.2,66.6,98,79,38,29.99,29.70,7,1,7,0.01
2013-9-12,81.1,74.7,66.6,73.0,68.3,52.9,96,82,54,29.86,29.56,8,2,8,0.21
2013-9-13,72.1,61.2,52.5,55.3,50.1,45.4,94,69,41,30.03,29.72,11,2,11,0.00
2013-9-14,76.8,56.1,43.0,53.4,47.1,42.5,99,75,34,30.38,29.95,8,1,8,0.00
2013-9-15,80.6,61.4,45.1,60.5,52.4,44.3,99,76,40,30.13,29.76,7,1,7,0.00
2013-9-16,73.6,64.5,53.1,61.0,56.7,50.7,92,76,57,30.13,29.81,9,2,9,0.00
2013-9-17,78.4,60.6,48.4,60.5,54.2,48.1,99,82,46,30.31,29.90,8,1,8,0.00
2013-9-18,86.7,68.0,57.9,68.1,62.5,56.2,97,84,51,30.03,29.84,5,1,5,0.00
2013-9-19,85.3,73.0,66.7,72.9,69.7,66.2,99,90,64,29.93,29.75,5,1,5,0.41
2013-9-20,78.8,73.0,66.7,71.5,68.7,66.1,99,87,72,29.81,29.63,7,2,7,0.30
2013-9-21,78.4,62.1,53.1,66.1,54.4,45.7,99,79,37,29.80,29.65,9,2,9,0.04
2013-9-22,76.1,57.0,46.0,54.7,50.2,45.2,99,81,44,30.09,29.81,7,1,7,0.00
2013-9-23,77.2,56.3,43.7,54.6,49.3,43.2,99,81,40,30.22,29.84,7,1,7,0.00
2013-9-24,82.8,60.3,45.9,64.3,55.0,44.9,99,85,50,30.18,29.70,8,1,8,0.00
2013-9-25,85.3,66.4,57.0,64.5,60.6,56.7,99,83,48,29.83,29.61,8,1,8,0.00
2013-9-26,83.3,62.2,50.4,59.3,54.6,50.1,99,80,36,30.03,29.80,7,1,7,0.00
2013-9-27,86.5,63.3,50.9,62.5,55.8,50.6,99,80,35,30.18,29.88,5,1,5,0.00
2013-9-28,87.8,65.5,50.4,65.5,57.1,50.1,99,78,35,30.09,29.77,6,1,6,0.00
2013-9-29,65.7,63.6,60.8,64.9,61.1,55.9,99,92,76,29.95,29.79,6,1,6,0.44
2013-9-30,72.0,64.6,61.0,66.6,62.8,60.4,99,94,77,29.90,29.73,4,0,4,0.02
2013-10-1,82.4,67.9,59.5,67.9,63.9,59.3,99,88,55,29.95,29.03,6,1,6,0.00
2013-10-2,77.7,70.3,65.8,70.6,68.1,65.0,99,93,76,29.88,29.09,4,0,4,0.02
2013-10-3,86.5,72.8,66.0,70.0,67.0,65.2,99,84,53,30.00,29.64,9,1,9,0.01
2013-10-4,86.5,72.3,66.2,74.3,68.6,65.1,98,89,63,29.94,29.75,5,1,5,0.34
2013-10-5,75.6,69.8,65.3,73.1,68.9,65.0,99,97,90,29.84,29.61,12,1,12,1.06
2013-10-6,66.9,59.6,48.7,66.7,56.3,42.4,99,89,64,29.93,29.60,10,2,10,1.36
2013-10-7,64.2,53.2,46.4,50.8,46.2,42.5,91,78,53,30.22,29.89,8,3,8,0.00
2013-10-8,76.6,54.6,42.4,56.4,47.7,42.2,99,81,41,30.46,30.08,7,1,7,0.00
2013-10-9,78.6,55.2,42.1,57.2,49.3,41.8,99,83,42,30.38,29.97,4,1,5,0.00
2013-10-10,80.6,58.6,45.9,60.5,52.9,45.1,99,84,42,30.25,29.90,6,0,6,0.00
2013-10-11,84.2,58.3,44.8,60.7,51.5,44.0,99,82,34,30.18,29.82,6,0,6,0.00
2013-10-12,82.2,61.2,47.1,64.3,55.7,46.9,99,85,45,30.08,29.89,6,0,6,0.00
2013-10-13,77.7,61.3,49.1,62.0,47.0,36.2,98,63,26,30.29,29.97,8,1,8,0.00
2013-10-14,75.4,54.1,41.0,51.6,45.4,39.9,99,75,36,30.46,30.15,6,1,6,0.00
2013-10-15,67.5,59.7,50.2,64.1,57.9,49.1,98,94,81,30.15,29.82,5,1,5,0.06
2013-10-16,64.9,56.5,44.4,63.8,50.2,42.5,97,80,52,30.00,29.84,9,2,9,0.09
2013-10-17,58.5,48.2,41.4,51.5,44.5,41.1,99,88,65,30.15,29.99,112,1,112,0.09
2013-10-18,70.7,53.2,45.1,50.0,45.4,41.3,97,78,42,30.30,30.00,11,2,11,0.00
2013-10-19,54.3,46.4,43.2,44.5,40.9,35.2,98,83,51,30.18,29.99,9,2,9,0.31
2013-10-20,67.5,50.3,41.5,45.4,39.7,36.1,87,69,42,30.28,29.98,12,3,12,0.00
2013-10-21,61.2,52.3,42.4,47.8,43.4,32.6,84,72,60,30.22,30.05,11,3,11,0.00
2013-10-22,54.0,41.8,30.9,41.6,32.7,27.7,93,72,42,30.47,30.01,4,1,7,0.04
2013-10-23,49.6,41.2,36.5,44.0,34.9,29.5,97,79,54,30.40,29.97,15,4,15,0.06
2013-10-24,40.5,37.4,34.3,35.9,31.5,27.0,89,79,67,30.54,30.25,10,2,10,0.02
2013-10-25,54.1,38.6,28.6,30.7,26.0,19.8,86,63,29,30.70,30.36,10,2,10,0.00
2013-10-26,59.5,44.6,33.3,42.2,31.5,24.0,74,60,45,30.46,29.97,13,4,13,0.00
2013-10-27,61.5,42.7,30.4,41.6,32.7,27.8,97,71,33,30.32,30.02,7,1,8,0.00
2013-10-28,68.4,43.7,28.8,43.8,33.0,27.3,99,72,26,30.64,30.24,6,0,6,0.00
2013-10-29,56.5,45.3,34.0,49.4,41.0,31.9,98,85,71,30.51,30.29,4,0,4,0.09
2013-10-30,66.4,58.9,50.5,65.0,58.1,49.7,99,97,94,30.29,29.96,5,0,5,0.11
2013-10-31,67.3,62.8,56.1,65.2,60.3,54.5,99,92,79,29.98,29.28,19,4,19,1.30
2013-11-1,61.9,53.0,47.7,54.8,46.4,42.0,98,80,53,29.92,29.41,15,5,15,0.01
2013-11-2,58.3,47.0,39.9,43.9,39.3,33.2,98,76,50,30.33,29.92,11,3,11,0.00
2013-11-3,60.1,42.3,31.8,43.4,34.1,29.3,99,76,35,30.51,30.27,7,0,7,0.00
2013-11-4,58.3,48.8,36.9,43.1,39.1,31.9,86,70,54,30.50,30.32,7,1,7,0.00
2013-11-5,62.6,54.1,48.6,47.5,44.9,40.8,94,72,53,30.52,30.19,7,0,7,0.01
2013-11-6,61.2,53.9,41.2,55.3,47.8,39.6,99,82,54,30.31,30.04,14,4,14,0.45
2013-11-7,52.0,42.2,32.4,39.9,31.3,23.2,95,68,34,30.50,30.25,11,4,11,0.00
2013-11-8,43.5,43.5,43.5,32.5,32.5,32.5,65,65,65,30.30,30.30,5,5,8,0.00
2013-11-9,61.0,48.8,43.5,41.5,36.3,32.5,72,62,45,30.30,30.01,17,5,17,0.00
2013-11-10,55.6,44.0,30.4,40.0,32.2,26.7,87,65,39,30.49,30.22,10,3,10,0.00
2013-11-11,54.5,41.1,28.8,43.4,34.1,26.2,93,78,43,30.59,30.06,11,2,11,0.08
2013-11-12,40.8,31.1,23.5,30.8,22.9,17.5,93,72,50,30.97,30.49,11,1,11,0.04
2013-11-13,42.4,29.7,19.2,24.6,16.9,11.5,86,62,29,30.89,30.39,13,2,13,0.00
2013-11-14,56.7,42.6,32.0,22.0,17.9,14.1,56,39,21,30.69,30.08,15,4,15,0.00
2013-11-15,44.8,44.2,43.2,20.1,19.2,17.3,39,36,33,30.46,30.39,7,3,7,0.00
2013-11-16,64.9,55.3,46.6,59.8,50.8,42.3,97,85,64,30.56,30.13,13,4,13,0.12
2013-11-17,66.6,61.8,59.0,61.7,59.7,58.2,99,93,84,30.15,29.89,16,4,16,0.74
2013-11-18,52.7,45.6,33.6,41.5,33.9,24.0,83,65,44,30.51,30.14,16,6,16,0.00
2013-11-19,47.1,34.2,26.4,30.8,25.5,21.6,86,72,47,30.41,30.15,8,1,8,0.00
2013-11-20,52.9,38.2,24.1,33.8,28.1,20.5,89,69,42,30.43,30.16,6,1,6,0.00
2013-11-21,58.3,49.4,43.5,50.1,44.2,33.1,98,83,54,30.33,30.20,7,1,7,0.17
2013-11-22,52.7,45.6,34.5,52.2,42.9,27.9,99,90,72,30.53,30.20,11,3,11,0.02
2013-11-23,36.1,28.4,19.9,28.1,18.0,3.9,88,66,45,30.76,30.41,13,4,13,0.00
2013-11-24,33.4,21.5,13.1,12.2,6.0,-0.6,68,52,29,30.87,30.59,9,2,9,0.00
2013-11-25,35.1,28.7,18.7,22.3,13.0,7.5,67,52,35,30.63,30.26,10,2,10,0.00
2013-11-26,37.8,33.6,30.0,26.7,24.1,21.0,82,68,53,30.32,30.02,14,2,14,0.00
2013-11-27,31.5,23.6,17.1,21.9,9.5,1.4,72,55,33,30.50,30.23,12,4,12,0.00
2013-11-28,39.0,26.8,17.1,16.7,10.4,3.8,64,51,27,30.57,30.20,14,3,14,0.00
2013-11-29,43.2,28.7,16.7,24.3,15.8,9.6,80,60,34,30.88,30.55,7,1,7,0.00
2013-11-30,55.8,39.6,24.6,27.4,22.4,16.6,81,53,25,30.76,30.14,11,2,11,0.00
2013-12-1,55.6,44.3,34.7,37.4,30.5,21.8,85,60,35,30.26,29.99,10,2,11,0.00
2013-12-2,55.9,41.2,32.5,39.7,34.7,29.0,90,79,53,30.17,29.78,5,0,5,0.00
2013-12-3,52.2,44.6,33.6,49.4,42.6,31.2,99,93,87,30.11,29.88,8,1,8,0.00
2013-12-4,65.7,55.8,43.9,58.4,53.0,43.2,99,91,70,30.00,29.70,11,2,11,0.00
2013-12-5,63.5,38.0,23.9,57.6,33.3,20.6,91,83,72,30.47,29.75,13,4,13,0.05
2013-12-6,25.2,23.5,21.6,20.6,19.2,14.9,87,83,75,30.77,30.43,0,0,0,0.00
2013-12-7,28.2,16.4,6.4,14.9,5.4,-1.2,76,62,41,31.23,30.77,0,0,0,0.00
2013-12-8,31.1,24.7,16.5,27.8,17.5,7.5,92,74,64,30.99,30.31,0,0,0,0.00
2013-12-9,31.1,25.8,20.5,28.1,17.3,9.5,93,71,49,30.73,30.44,0,0,0,0.00
2013-12-10,28.4,19.9,11.7,15.0,8.3,2.4,80,61,42,30.89,30.51,0,0,0,0.00
2013-12-11,32.4,19.2,6.4,20.9,9.6,-2.2,85,66,54,31.11,30.79,11,1,11,0.00
2013-12-12,23.4,12.4,-1.5,2.6,-7.9,-15.8,67,43,21,31.25,30.80,11,3,11,0.00
2013-12-13,41.2,29.2,17.6,29.0,14.7,0.3,87,56,38,30.84,30.49,14,2,14,0.08
2013-12-14,37.4,33.3,29.3,35.3,30.5,25.5,93,89,85,30.51,29.86,11,2,11,0.40
2013-12-15,29.7,25.3,21.9,26.0,17.0,11.9,86,71,59,30.59,30.02,14,6,14,0.00
2013-12-16,34.3,29.0,25.9,29.7,23.6,20.1,89,80,68,30.41,30.12,9,1,9,0.04
2013-12-17,32.4,26.6,23.2,27.6,21.2,17.9,88,80,67,30.30,30.17,12,4,12,0.00
2013-12-18,43.2,28.2,19.9,21.1,12.7,7.9,82,56,24,30.70,30.30,10,4,10,0.01
2013-12-19,55.8,48.7,42.1,45.7,35.3,18.6,71,60,38,30.29,30.12,13,5,13,0.01
2013-12-20,61.7,57.3,52.2,59.2,51.5,44.7,95,82,66,30.12,29.75,14,6,14,0.46
2013-12-21,52.2,44.1,40.5,50.8,43.6,40.2,99,98,95,30.00,29.39,9,2,9,2.86
2013-12-22,47.3,38.5,32.4,47.0,36.9,26.9,99,94,80,30.19,29.41,29,11,29,0.07
2013-12-23,32.4,26.4,18.1,27.3,19.0,5.9,84,73,60,30.74,30.20,20,8,20,0.00
2013-12-24,24.3,14.9,6.4,7.8,0.8,-6.6,63,53,36,31.09,30.62,17,5,17,0.00
2013-12-25,31.6,25.8,19.4,22.8,12.7,6.4,70,57,45,30.64,30.27,13,5,13,0.00
2013-12-26,41.4,33.4,28.2,26.2,22.2,17.6,76,64,45,30.58,30.38,21,6,21,0.00
2013-12-27,50.0,38.4,30.9,30.8,26.1,20.6,73,62,45,30.61,30.33,12,5,12,0.00
2013-12-28,54.9,41.4,34.7,31.1,26.5,20.6,76,57,32,30.34,29.92,14,4,14,0.00
2013-12-29,41.3,33.9,26.8,31.6,27.2,20.6,93,77,49,30.18,29.85,20,7,20,0.02
2013-12-30,28.4,22.2,18.7,21.8,10.6,5.2,82,61,42,30.47,30.19,14,5,14,0.00
2013-12-31,36.3,27.9,20.8,18.9,12.6,8.5,62,52,38,30.69,30.30,17,6,17,0.00
2014-1-1,46.4,35.8,30.0,28.1,24.0,17.9,73,62,45,30.69,30.03,14,4,16,0.00
2014-1-2,34.3,20.7,6.3,29.0,13.0,-4.7,90,72,55,30.50,29.98,21,1,21,0.00